When you browse on this site, cookies collect data to enhance your experience and personalize the content and advertising you see.
Visit our Privacy Policy to learn more. By continuing to use the site, you agree to this use of cookies and data.
  • In United Kingdom
  • List of Countries
  • For 7 days
  • Water Temperature
  • Weather Map
  • Weather Widgets
  • user-avatar
    Login

    Hourly Weather Huancavelica

    Today, 19 September, Thursday

    Time Temperature Precipitation Wind Pressure Humidity
    00:00 +6°C° 0 mm 0 mps 465 mmHg 87%
    01:00 +6°C° 0 mm 0 mps 464 mmHg 89%
    02:00 +6°C° 0 mm 0 mps 464 mmHg 89%
    03:00 +5°C° 0 mm 0 mps 463 mmHg 90%
    04:00 +5°C° 0 mm 0 mps 463 mmHg 91%
    05:00 +5°C° 0 mm 0 mps 463 mmHg 87%
    06:00 +6°C° 0 mm 0 mps 464 mmHg 82%
    07:00 +7°C° 0 mm 0 mps 465 mmHg 78%
    08:00 +9°C° 0 mm 1 mps 466 mmHg 70%
    09:00 +11°C° 0 mm 1 mps 467 mmHg 61%
    10:00 +12°C° 0 mm 2 mps 468 mmHg 53%
    11:00 +13°C° 0.3 mm 2 mps 468 mmHg 51%
    12:00 +13°C° 0.3 mm 3 mps 468 mmHg 49%
    13:00 +14°C° 0.3 mm 3 mps 468 mmHg 47%
    14:00 +13°C° 1 mm 3 mps 467 mmHg 52%
    15:00 +12°C° 1 mm 3 mps 467 mmHg 57%
    16:00 +11°C° 1 mm 3 mps 466 mmHg 62%
    17:00 +10°C° 1.2 mm 2 mps 466 mmHg 69%
    18:00 +9°C° 1.2 mm 2 mps 465 mmHg 75%
    19:00 +9°C° 1.2 mm 1 mps 465 mmHg 82%
    20:00 +9°C° 0.5 mm 1 mps 465 mmHg 84%
    21:00 +8°C° 0.5 mm 1 mps 465 mmHg 85%
    22:00 +8°C° 0.5 mm 1 mps 465 mmHg 87%
    23:00 +8°C° 0.2 mm 1 mps 465 mmHg 88%

    Tomorrow, 20 September, Friday

    Time Temperature Precipitation Wind Pressure Humidity
    00:00 +7°C° 0.2 mm 1 mps 465 mmHg 89%
    01:00 +7°C° 0.2 mm 1 mps 464 mmHg 90%
    02:00 +7°C° 0.2 mm 1 mps 464 mmHg 89%
    03:00 +7°C° 0.2 mm 1 mps 464 mmHg 88%
    04:00 +6°C° 0.2 mm 0 mps 464 mmHg 87%
    05:00 +7°C° 0.1 mm 1 mps 464 mmHg 87%
    06:00 +7°C° 0.1 mm 1 mps 465 mmHg 86%
    07:00 +7°C° 0.1 mm 1 mps 465 mmHg 85%
    08:00 +7°C° 0.3 mm 2 mps 466 mmHg 81%
    09:00 +8°C° 0.3 mm 2 mps 466 mmHg 77%
    10:00 +9°C° 0.3 mm 3 mps 467 mmHg 73%
    11:00 +10°C° 0.8 mm 3 mps 467 mmHg 68%
    12:00 +11°C° 0.8 mm 3 mps 467 mmHg 64%
    13:00 +12°C° 0.8 mm 3 mps 468 mmHg 59%
    14:00 +11°C° 1.1 mm 4 mps 467 mmHg 66%
    15:00 +8°C° 1.1 mm 4 mps 466 mmHg 73%
    16:00 +7°C° 1.1 mm 4 mps 465 mmHg 80%
    17:00 +8°C° 0.4 mm 3 mps 465 mmHg 82%
    18:00 +7°C° 0.4 mm 2 mps 465 mmHg 83%
    19:00 +8°C° 0.4 mm 1 mps 465 mmHg 85%
    20:00 +7°C° 0.1 mm 1 mps 465 mmHg 87%
    21:00 +7°C° 0.1 mm 1 mps 465 mmHg 89%
    22:00 +7°C° 0.1 mm 1 mps 465 mmHg 90%
    23:00 +7°C° 0 mm 1 mps 465 mmHg 90%

    Day after tomorrow, 21 September, Saturday

    Time Temperature Precipitation Wind Pressure Humidity
    00:00 +7°C° 0 mm 1 mps 465 mmHg 90%
    01:00 +6°C° 0 mm 1 mps 464 mmHg 89%
    02:00 +6°C° 0 mm 1 mps 464 mmHg 89%
    03:00 +6°C° 0 mm 1 mps 464 mmHg 89%
    04:00 +6°C° 0 mm 1 mps 464 mmHg 89%
    05:00 +6°C° 0.1 mm 1 mps 464 mmHg 88%
    06:00 +6°C° 0.1 mm 1 mps 465 mmHg 88%
    07:00 +7°C° 0.1 mm 1 mps 465 mmHg 87%
    08:00 +7°C° 0.2 mm 2 mps 466 mmHg 80%
    09:00 +8°C° 0.2 mm 2 mps 467 mmHg 72%
    10:00 +9°C° 0.2 mm 3 mps 468 mmHg 65%
    11:00 +10°C° 0.4 mm 3 mps 468 mmHg 64%
    12:00 +10°C° 0.4 mm 4 mps 468 mmHg 62%
    13:00 +11°C° 0.4 mm 4 mps 468 mmHg 61%
    14:00 +11°C° 0.4 mm 4 mps 467 mmHg 62%
    15:00 +10°C° 0.4 mm 4 mps 467 mmHg 62%
    16:00 +10°C° 0.4 mm 3 mps 467 mmHg 63%
    17:00 +9°C° 0.1 mm 3 mps 466 mmHg 70%
    18:00 +8°C° 0.1 mm 3 mps 466 mmHg 77%
    19:00 +7°C° 0.1 mm 2 mps 466 mmHg 84%
    20:00 +7°C° 0.1 mm 2 mps 466 mmHg 87%
    21:00 +7°C° 0.1 mm 1 mps 465 mmHg 91%
    22:00 +7°C° 0.1 mm 1 mps 465 mmHg 94%
    23:00 +6°C° 0 mm 1 mps 465 mmHg 94%

    22 September, Sunday

    Time Temperature Precipitation Wind Pressure Humidity
    00:00 +6°C° 0 mm 1 mps 465 mmHg 94%
    01:00 +6°C° 0 mm 1 mps 464 mmHg 94%
    02:00 +6°C° 0 mm 1 mps 464 mmHg 92%
    03:00 +6°C° 0 mm 1 mps 464 mmHg 91%
    04:00 +5°C° 0 mm 1 mps 464 mmHg 90%
    05:00 +6°C° 0 mm 1 mps 464 mmHg 87%
    06:00 +6°C° 0 mm 1 mps 465 mmHg 84%
    07:00 +6°C° 0 mm 1 mps 465 mmHg 81%
    08:00 +7°C° 0 mm 1 mps 466 mmHg 74%
    09:00 +8°C° 0 mm 2 mps 467 mmHg 66%
    10:00 +10°C° 0 mm 3 mps 468 mmHg 59%
    11:00 +10°C° 0.1 mm 3 mps 468 mmHg 57%
    12:00 +11°C° 0.1 mm 4 mps 469 mmHg 54%
    13:00 +12°C° 0.1 mm 4 mps 469 mmHg 51%
    14:00 +12°C° 0.3 mm 4 mps 468 mmHg 54%
    15:00 +11°C° 0.3 mm 4 mps 468 mmHg 56%
    16:00 +11°C° 0.3 mm 4 mps 467 mmHg 58%
    17:00 +10°C° 0.2 mm 3 mps 467 mmHg 66%
    18:00 +9°C° 0.2 mm 3 mps 466 mmHg 74%
    19:00 +7°C° 0.2 mm 2 mps 466 mmHg 82%
    20:00 +7°C° 0.1 mm 2 mps 466 mmHg 85%
    21:00 +8°C° 0.1 mm 1 mps 466 mmHg 89%
    22:00 +7°C° 0.1 mm 1 mps 466 mmHg 92%
    23:00 +6°C° 0 mm 0 mps 465 mmHg 92%

    23 September, Monday

    Time Temperature Precipitation Wind Pressure Humidity
    00:00 +6°C° 0 mm 0 mps 465 mmHg 92%
    01:00 +6°C° 0 mm 0 mps 465 mmHg 92%
    02:00 +5°C° 0 mm 0 mps 465 mmHg 93%
    03:00 +5°C° 0 mm 0 mps 464 mmHg 94%
    04:00 +6°C° 0 mm 1 mps 464 mmHg 95%
    05:00 +6°C° 0 mm 1 mps 465 mmHg 92%
    06:00 +6°C° 0 mm 1 mps 465 mmHg 90%
    07:00 +6°C° 0 mm 1 mps 466 mmHg 88%
    08:00 +8°C° 0.1 mm 1 mps 466 mmHg 79%
    09:00 +8°C° 0.1 mm 2 mps 467 mmHg 71%
    10:00 +9°C° 0.1 mm 3 mps 468 mmHg 62%
    11:00 +10°C° 0.1 mm 3 mps 468 mmHg 58%
    12:00 +11°C° 0.1 mm 4 mps 469 mmHg 54%
    13:00 +13°C° 0.1 mm 5 mps 469 mmHg 50%
    14:00 +12°C° 0.1 mm 5 mps 469 mmHg 52%
    15:00 +12°C° 0.1 mm 5 mps 468 mmHg 53%
    16:00 +12°C° 0.1 mm 5 mps 468 mmHg 54%
    17:00 +10°C° 0 mm 4 mps 467 mmHg 62%
    18:00 +9°C° 0 mm 3 mps 467 mmHg 69%
    19:00 +8°C° 0 mm 2 mps 466 mmHg 77%
    20:00 +8°C° 0 mm 1 mps 466 mmHg 82%
    21:00 +7°C° 0 mm 1 mps 466 mmHg 87%
    22:00 +7°C° 0 mm 1 mps 466 mmHg 91%
    23:00 +7°C° 0 mm 1 mps 465 mmHg 92%

    24 September, Tuesday

    Time Temperature Precipitation Wind Pressure Humidity
    00:00 +6°C° 0 mm 1 mps 465 mmHg 92%
    01:00 +6°C° 0 mm 1 mps 465 mmHg 92%
    02:00 +6°C° 0 mm 1 mps 465 mmHg 89%
    03:00 +6°C° 0 mm 1 mps 465 mmHg 85%
    04:00 +6°C° 0 mm 1 mps 465 mmHg 81%
    05:00 +6°C° 0 mm 1 mps 465 mmHg 78%
    06:00 +6°C° 0 mm 1 mps 466 mmHg 76%
    07:00 +6°C° 0 mm 1 mps 466 mmHg 73%
    08:00 +7°C° 0 mm 2 mps 467 mmHg 68%
    09:00 +8°C° 0 mm 3 mps 468 mmHg 62%
    10:00 +10°C° 0 mm 3 mps 469 mmHg 57%
    11:00 +10°C° 0.1 mm 4 mps 469 mmHg 53%
    12:00 +11°C° 0.1 mm 4 mps 469 mmHg 50%
    13:00 +12°C° 0.1 mm 5 mps 469 mmHg 47%
    14:00 +12°C° 0 mm 5 mps 469 mmHg 47%
    15:00 +12°C° 0 mm 5 mps 469 mmHg 47%
    16:00 +12°C° 0 mm 5 mps 469 mmHg 47%
    17:00 +10°C° 0 mm 4 mps 468 mmHg 56%
    18:00 +9°C° 0 mm 3 mps 467 mmHg 66%
    19:00 +7°C° 0 mm 2 mps 466 mmHg 76%
    20:00 +7°C° 0 mm 2 mps 466 mmHg 81%
    21:00 +6°C° 0 mm 2 mps 466 mmHg 87%
    22:00 +5°C° 0 mm 2 mps 466 mmHg 92%
    23:00 +6°C° 0 mm 1 mps 465 mmHg 92%
    Show more